Tracking 28126 objects as of 1-Oct-2023
HD Live streaming from Space Station
objects crossing your sky now

MARISAT 1

Track MARISAT 1 now!
MARISAT 1 is classified as:


NORAD ID: 8697
Int'l Code: 1976-017A
Perigee: 36,031.3 km
Apogee: 36,158.8 km
Inclination: 8.2 °
Period: 1,451.5 minutes
Semi major axis: 42466 km
RCS: 5.8066 m2 (large)
Launch date: February 19, 1976
Source: United States (US)
Launch site: AIR FORCE EASTERN TEST RANGE (AFETR)
Your satellite tracking list
Your tracking list is empty




NASA's NSSDC Master Catalog

Two Line Element Set (TLE):
1 08697U 76017A   23273.27147119  .00000035  00000-0  00000-0 0  9998
2 08697   8.1637 302.6173 0015011 183.8207 195.8113  0.99206355172272
Source of the keplerian elements: AFSPC